[[{"header":{"parameterUnit":"m.s-1","parameterCategory":1,"la1":30.2991,"la2":30.254,"lo1":-89.0895,"lo2":-89.0444,"dy":0.0017,"dx":0.0017,"nx":28,"ny":28,"refTime":"2024-10-13T03:00:00:Z","depth":0,"parameterNumber":2,"parameterNumberName":"U-component_of_WINDS"},"data":[0,0,0,0,0,0,0,0,0,0,0,0,0,0,0,0,0,0,0,0,0,0,0,0,0,0,0,0,0,0,0,0,0,0,0,0,0,0,0,0,0,0,0,0,0,0,0,0,0,0,0,0,0,0,0,0,0,0,2.5343,2.5344,0,2.5435,2.5436,2.5437,2.5448,2.5447,2.5446,2.5446,2.5541,2.5544,2.5548,0,0,0,0,0,0,0,0,0,0,0,0,0,2.518,2.5183,2.5343,2.5344,2.5345,2.5435,2.5436,2.5437,2.5448,2.5447,2.5446,2.5445,2.554,2.5544,2.5548,0,0,0,0,0,0,0,0,0,0,0,0,0,2.5259,2.5184,2.5343,2.5362,2.5364,2.5434,2.5436,2.5437,2.5449,2.5447,2.5446,2.5445,2.5538,2.5543,2.5548,2.5606,0,0,2.5564,2.5566,0,0,0,0,0,0,0,0,2.5254,2.5265,2.5358,2.536,2.5363,2.5429,2.5413,2.5494,2.5449,2.5417,2.5446,2.5444,2.5505,2.5512,2.5533,2.5611,2.5615,2.5564,2.5567,2.5569,2.5571,0,0,0,0,0,0,0,2.5249,2.5261,2.5379,2.5359,2.5363,2.5366,2.5376,2.5429,2.5467,2.5419,2.542,2.5431,2.5506,2.5528,2.5535,2.5616,2.5564,2.5569,2.5572,2.5574,2.5748,2.5749,0,0,0,0,0,0,2.524,2.5256,2.5376,2.5382,2.5305,2.537,2.5381,2.5409,2.5467,2.5474,2.5432,2.5431,2.552,2.5529,2.5538,2.561,2.5569,2.5574,2.5577,2.5746,2.5748,2.575,0,0,0,0,0,0,2.5236,2.525,2.5373,2.532,2.5335,2.5374,2.5406,2.5412,2.5433,2.5476,2.5483,2.5447,2.5519,2.5531,2.5589,2.5614,2.5576,2.5581,2.5744,2.5747,2.5749,2.5754,0,0,0,0,0,0,2.5231,2.5249,2.5271,2.532,2.5338,2.5421,2.5407,2.5414,2.5442,2.5442,2.5492,2.5499,2.5519,2.5582,2.5594,2.562,2.5585,2.5742,2.5745,2.5748,2.5752,2.5756,2.576,0,0,0,0,0,2.5226,2.5269,2.5272,2.5286,2.5366,2.5423,2.5433,2.5455,2.5444,2.5466,2.5494,2.5498,2.5609,2.5588,2.5602,2.5629,2.5741,2.5744,2.5748,2.575,2.5755,2.576,0,0,0,0,0,0,2.5221,2.5275,2.5279,2.534,2.5377,2.5425,2.5454,2.546,2.5501,2.5499,2.5525,2.5536,2.5593,2.5617,2.5592,2.5689,2.5674,2.5681,2.5671,2.5676,2.568,2.5673,2.5589,0,0,0,0,0,2.5227,2.5268,2.5314,2.5362,2.5381,2.5414,2.544,2.5453,2.5493,2.5508,2.554,2.5579,2.5623,2.5651,2.5694,2.5756,2.5767,2.5782,2.5786,2.5789,2.5794,2.5829,2.5837,2.5762,2.5762,2.5761,0,0,2.524,2.5275,2.5299,2.5362,2.5393,2.5435,2.5427,2.5472,2.5504,2.5515,2.5572,2.5597,2.5642,2.5702,2.5731,2.5724,2.5818,2.5794,2.5796,2.58,2.5834,2.5841,2.5847,2.5764,2.5764,2.5763,0,0,2.5285,2.5315,2.5359,2.539,2.5436,2.5458,2.5469,2.5517,2.5533,2.5591,2.56,2.5639,2.5714,2.5746,2.5772,2.5831,2.5835,2.5844,2.5865,2.5899,2.5905,2.591,2.5931,2.5938,2.5849,2.5849,2.5849,0,2.5295,2.5359,2.5381,2.5426,2.5454,2.5467,2.5512,2.5541,2.5598,2.5618,2.561,2.5705,2.5736,2.5804,2.5818,2.5839,2.5852,2.5838,2.5902,2.5908,2.5913,2.5933,2.5941,2.585,2.585,2.585,2.585,0,2.5369,2.5413,2.5444,2.5499,2.553,2.5575,2.5605,2.5635,2.5646,2.5669,2.5728,2.5766,2.5817,2.5835,2.5846,2.5905,2.5899,2.5897,2.5882,2.592,2.594,2.5948,2.5851,2.5851,2.585,2.585,0,0,2.5412,2.548,2.5491,2.5516,2.5569,2.5603,2.565,2.5699,2.5724,2.5764,2.5803,2.5867,2.5865,2.5895,2.591,2.594,2.5984,2.5934,2.5935,2.5941,2.6051,2.6052,2.6061,2.5988,2.599,2.5991,2.6047,0,2.5462,2.5544,2.5566,2.5636,2.5677,2.5691,2.5731,2.5768,2.5791,2.583,2.5857,2.5901,2.5895,2.5913,2.5944,2.5972,2.6007,2.5969,2.6025,2.6027,2.6012,2.6071,2.6072,2.6123,2.6055,2.6056,2.6057,0,2.5531,2.5572,2.5646,2.5694,2.5712,2.5748,2.5795,2.5833,2.5875,2.5891,2.5924,2.5937,2.5987,2.597,2.6039,2.6013,2.6038,2.6055,2.6058,2.6063,2.6044,2.6077,2.614,2.6147,2.607,2.6069,2.6068,0,2.5554,2.5629,2.5682,2.5704,2.5761,2.5786,2.5811,2.5853,2.5881,2.5923,2.5942,2.599,2.6016,2.6053,2.6079,2.6064,2.6145,2.6131,2.6159,2.6158,2.6174,2.6173,2.6241,2.6192,2.6192,2.6192,2.6191,0,2.5608,2.5652,2.5693,2.5726,2.5777,2.5803,2.5852,2.5878,2.5915,2.5954,2.5969,2.6005,2.6038,2.6078,2.6099,2.6153,2.6165,2.6178,2.6183,2.6176,2.6175,2.6192,2.6189,2.6194,2.6193,2.6193,2.6192,0,2.5641,2.5671,2.573,2.578,2.5794,2.5829,2.5872,2.5905,2.5929,2.5978,2.5991,2.603,2.6079,2.6108,2.617,2.6185,2.6243,2.6247,2.6229,2.6231,2.6257,2.6254,2.6338,2.6351,2.6294,2.6294,2.6295,0,2.5672,2.5707,2.5761,2.5788,2.5813,2.5856,2.5886,2.5914,2.5944,2.5996,2.6023,2.6073,2.6114,2.6191,2.6225,2.6273,2.6277,2.6304,2.6285,2.6277,2.6277,2.6274,2.6278,2.6307,2.6307,2.6307,2.6308,0,2.5725,2.5738,2.578,2.5827,2.5862,2.5901,2.594,2.5961,2.5996,2.6029,2.6079,2.6111,2.6174,2.6224,2.6275,2.6301,2.631,2.6314,2.6323,2.6316,2.6303,2.631,2.6236,2.6311,2.6311,2.6311,2.6311,2.631,2.5758,2.5789,2.5832,2.5879,2.5911,2.5947,2.598,2.601,2.6052,2.6105,2.612,2.6172,2.6215,2.6284,2.6312,2.6354,2.635,2.6363,2.6366,2.6369,2.6369,2.6297,2.6364,2.6364,2.6364,2.6364,2.6364,0,2.5811,2.5839,2.5882,2.5936,2.5972,2.5978,2.6022,2.6052,2.6098,2.6137,2.6178,2.6236,2.6284,2.6322,2.6372,2.6398,2.6404,2.641,2.6408,2.6414,2.637,2.6357,2.6405,2.6405,2.6405,2.6405,2.6405,2.6405,2.5842,2.5896,2.5914,2.5985,2.6013,2.6064,2.6089,2.6122,2.6154,2.6218,2.6258,2.6283,2.6322,2.6375,2.642,2.643,2.6447,2.6453,2.6463,2.6422,2.6417,2.6413,2.64,2.6456,2.6457,2.6504,2.6504,2.6504]},{"header":{"parameterUnit":"m.s-1","parameterCategory":1,"la1":30.2991,"la2":30.254,"lo1":-89.0895,"lo2":-89.0444,"dy":0.0017,"dx":0.0017,"nx":28,"ny":28,"refTime":"2024-10-13T03:00:00:Z","depth":0,"parameterNumber":3,"parameterNumberName":"V-component_of_WINDS"},"data":[0,0,0,0,0,0,0,0,0,0,0,0,0,0,0,0,0,0,0,0,0,0,0,0,0,0,0,0,0,0,0,0,0,0,0,0,0,0,0,0,0,0,0,0,0,0,0,0,0,0,0,0,0,0,0,0,0,0,3.1667,3.1666,0,3.1655,3.1655,3.1655,3.166,3.166,3.1661,3.1661,3.1646,3.1646,3.1645,0,0,0,0,0,0,0,0,0,0,0,0,0,3.1689,3.1689,3.1667,3.1666,3.1666,3.1655,3.1655,3.1655,3.166,3.166,3.1661,3.1661,3.1646,3.1646,3.1645,0,0,0,0,0,0,0,0,0,0,0,0,0,3.1679,3.1689,3.1667,3.1668,3.1668,3.1655,3.1655,3.1655,3.166,3.166,3.1661,3.1661,3.1647,3.1646,3.1645,3.163,0,0,3.1642,3.1641,0,0,0,0,0,0,0,0,3.1679,3.1678,3.1668,3.1668,3.1667,3.1659,3.1658,3.1646,3.166,3.1663,3.1661,3.1661,3.165,3.1649,3.1646,3.1629,3.1628,3.1642,3.1641,3.1641,3.164,0,0,0,0,0,0,0,3.168,3.1678,3.1662,3.1667,3.1667,3.1667,3.1666,3.1655,3.1654,3.1662,3.1663,3.1661,3.165,3.1647,3.1645,3.1628,3.1642,3.1641,3.164,3.164,3.1596,3.1595,0,0,0,0,0,0,3.1681,3.1679,3.1662,3.1662,3.1675,3.1667,3.1665,3.1661,3.1654,3.1653,3.1661,3.1662,3.1648,3.1646,3.1645,3.1625,3.1641,3.164,3.1639,3.1596,3.1596,3.1595,0,0,0,0,0,0,3.1682,3.168,3.1663,3.167,3.1668,3.1666,3.1661,3.1661,3.1658,3.1653,3.1653,3.1658,3.1648,3.1646,3.1633,3.1625,3.1639,3.1638,3.1597,3.1596,3.1595,3.1586,0,0,0,0,0,0,3.1682,3.168,3.1675,3.167,3.1668,3.1652,3.1661,3.166,3.1656,3.1657,3.165,3.1649,3.1649,3.1634,3.1632,3.1623,3.1638,3.1598,3.1597,3.1596,3.1587,3.1585,3.1583,0,0,0,0,0,3.1683,3.1673,3.1675,3.1673,3.1662,3.1652,3.165,3.1651,3.1656,3.165,3.1647,3.165,3.1626,3.1633,3.163,3.1621,3.1598,3.1597,3.1596,3.1588,3.1586,3.1583,0,0,0,0,0,0,3.1677,3.1673,3.1675,3.1663,3.1658,3.1653,3.1646,3.1648,3.1641,3.1642,3.1641,3.164,3.1626,3.1622,3.163,3.1605,3.1613,3.1611,3.1608,3.1605,3.1603,3.1604,3.1637,0,0,0,0,0,3.1674,3.1667,3.1664,3.1653,3.1651,3.1649,3.1644,3.1645,3.1639,3.1637,3.1633,3.1626,3.1617,3.1611,3.1603,3.1587,3.1584,3.1579,3.1577,3.1576,3.1574,3.1562,3.1559,3.1591,3.1591,3.1591,0,0,3.1668,3.1665,3.1661,3.1652,3.1648,3.164,3.1647,3.1638,3.1631,3.1635,3.1622,3.1619,3.1611,3.1596,3.1589,3.1593,3.1564,3.1574,3.1573,3.1572,3.1561,3.1558,3.1555,3.159,3.159,3.159,0,0,3.1653,3.1651,3.1641,3.1637,3.1631,3.1629,3.1627,3.1622,3.1619,3.1607,3.1609,3.16,3.1585,3.1579,3.1574,3.1554,3.1555,3.1551,3.1541,3.153,3.1527,3.1525,3.1516,3.1513,3.1549,3.1549,3.1549,0,3.1646,3.1635,3.1636,3.1626,3.1621,3.1625,3.1614,3.161,3.1601,3.1597,3.1601,3.1581,3.1576,3.1558,3.1553,3.155,3.1545,3.1552,3.1528,3.1525,3.1523,3.1515,3.1512,3.1549,3.1549,3.1549,3.1549,0,3.1626,3.1617,3.161,3.1602,3.1596,3.1586,3.1584,3.1578,3.1578,3.1576,3.1561,3.1555,3.1545,3.1541,3.1541,3.1522,3.1524,3.1528,3.1536,3.152,3.1511,3.1508,3.1548,3.1548,3.1548,3.1548,0,0,3.1607,3.1598,3.1596,3.1591,3.1584,3.1577,3.1566,3.1556,3.155,3.1543,3.1532,3.1519,3.1522,3.1516,3.1515,3.1506,3.1487,3.151,3.151,3.1505,3.1464,3.146,3.1456,3.1489,3.1488,3.1488,3.1464,0,3.159,3.1572,3.1572,3.1555,3.1546,3.1548,3.1538,3.1531,3.1528,3.1519,3.1515,3.1504,3.151,3.1506,3.1497,3.1492,3.1479,3.1494,3.1477,3.1476,3.1478,3.1452,3.1449,3.1427,3.1461,3.146,3.146,0,3.1568,3.1561,3.1543,3.1536,3.1532,3.1523,3.1513,3.1505,3.1496,3.1494,3.1487,3.1487,3.1473,3.1482,3.1462,3.1471,3.1464,3.146,3.1459,3.1457,3.1466,3.1448,3.142,3.1416,3.1455,3.1455,3.1456,0,3.1554,3.154,3.1527,3.1523,3.1515,3.1508,3.1504,3.1496,3.1489,3.148,3.1475,3.1464,3.1457,3.1448,3.1444,3.145,3.1423,3.1431,3.1419,3.1419,3.1413,3.1413,3.1382,3.141,3.141,3.141,3.141,0,3.1535,3.1524,3.1521,3.1512,3.1499,3.1498,3.1483,3.1479,3.1472,3.1461,3.1462,3.1452,3.1448,3.1437,3.1433,3.1416,3.1413,3.141,3.1409,3.1409,3.1409,3.1404,3.1405,3.1409,3.141,3.141,3.141,0,3.1517,3.1515,3.1501,3.1493,3.1491,3.1481,3.1474,3.1464,3.1461,3.1447,3.1444,3.1438,3.1424,3.1419,3.1403,3.14,3.1379,3.138,3.1382,3.1382,3.1369,3.137,3.1332,3.1326,3.136,3.136,3.1359,0,3.1505,3.1496,3.1487,3.1481,3.1477,3.1466,3.1459,3.1457,3.1449,3.1438,3.143,3.1416,3.1405,3.1382,3.1375,3.1362,3.1361,3.1349,3.1359,3.1359,3.1359,3.1359,3.1357,3.1347,3.1347,3.1346,3.1346,0,3.1482,3.1481,3.1472,3.1462,3.1454,3.1445,3.1437,3.1431,3.1427,3.1418,3.1404,3.1396,3.1378,3.1364,3.1349,3.1343,3.1343,3.1343,3.1339,3.1339,3.134,3.1337,3.1376,3.1344,3.1344,3.1344,3.1344,3.1344,3.1466,3.1457,3.1449,3.1438,3.1432,3.1424,3.1414,3.1409,3.1398,3.1384,3.1383,3.1368,3.1357,3.1337,3.133,3.1316,3.1319,3.1314,3.1313,3.1311,3.1309,3.1343,3.1314,3.1314,3.1314,3.1314,3.1314,0,3.1442,3.1437,3.1427,3.1415,3.1406,3.1408,3.1398,3.1389,3.1376,3.1367,3.1356,3.1338,3.1324,3.1315,3.1299,3.129,3.1289,3.1286,3.1286,3.1284,3.1308,3.1312,3.1286,3.1286,3.1286,3.1286,3.1286,3.1286,3.1428,3.1414,3.1411,3.1392,3.1386,3.1372,3.1366,3.1357,3.1349,3.133,3.1319,3.1313,3.1303,3.1287,3.1272,3.127,3.1263,3.1259,3.1257,3.128,3.1282,3.1285,3.1289,3.1258,3.1258,3.1233,3.1233,3.1233]}]]